C/2017 T2 ( PanSTARRS )

Japanese version
Home page
Updated on December 24, 2017

---------------------------------------------------------------------

* Profile

Discovery Date October 2, 2017
Magnitude 19.9 mag
Discoverer Pan-STARRS 1 telescope (Haleakala)

* Pictures

* Orbital Elements

Epoch 2020 Apr. 21.0 TT = JDT 2458960.5
T 2020 May 5.18773 TT                                   MPCW
q   1.6149787            (2000.0)            P               Q
z  +0.0003523      Peri.   93.01172     -0.51000917     -0.40625758
 +/-0.0000799      Node    64.37416     -0.16304036     -0.81980244
e   0.9994310      Incl.   57.23511     +0.84457592     -0.40358239
From 101 observations 2017 Sept. 15-Nov. 23, mean residual 0".4.

* Finding Charts

* Magnitudes Graph

        m1 = 5.0 + 5 log d + 10.0 log r

---------------------------------------------------------------------

The orbital elements are published on M.P.E.C. 2017-X08.
The charts are made with StellaNavigator Ver.10 (AstroArts).
The magnitudes graphs are made with Comet for Windows.

---------------------------------------------------------------------

Copyright(C) Seiichi Yoshida (comet@aerith.net). All rights reserved.